Time,TemperatureF,DewpointF,PressureIn,WindDirection,WindDirectionDegrees,WindSpeedMPH,WindSpeedGustMPH,Humidity,HourlyPrecipIn,Conditions,Clouds,dailyrainin,SolarRadiationWatts/m^2,SoftwareType,DateUTC
2013-08-01 00:04:00,55.0,51.5,29.92,NW,309,5.8,5.8,88,0.00,,SCT,0.00,0.0,WeatherDisplay:10.37,2013-08-01 05:04:00,
2013-08-01 00:09:00,55.0,51.5,29.92,NW,306,6.0,6.0,88,0.00,,SCT,0.00,0.0,WeatherDisplay:10.37,2013-08-01 05:09:00,
2013-08-01 00:14:00,55.0,51.5,29.92,WNW,298,4.6,4.6,88,0.00,,SCT,0.00,0.0,WeatherDisplay:10.37,2013-08-01 05:14:00,
2013-08-01 00:19:00,55.0,51.5,29.92,WNW,296,4.6,4.6,88,0.00,,SCT,0.00,0.0,WeatherDisplay:10.37,2013-08-01 05:19:00,
2013-08-01 00:24:00,55.0,51.5,29.92,WNW,296,4.0,4.0,88,0.00,,SCT,0.00,0.0,WeatherDisplay:10.37,2013-08-01 05:24:00,
2013-08-01 00:29:00,55.0,51.2,29.92,WNW,296,3.5,3.5,87,0.00,,SCT,0.00,0.0,WeatherDisplay:10.37,2013-08-01 05:29:00,
2013-08-01 00:34:00,55.0,51.2,29.92,WNW,296,2.0,4.0,87,0.00,,SCT,0.00,0.0,WeatherDisplay:10.37,2013-08-01 05:34:00,
2013-08-01 00:36:00,54.8,51.0,29.92,WNW,296,3.5,3.5,87,0.00,,SCT,0.00,0.0,WeatherDisplay:10.37,2013-08-01 05:36:00,
2013-08-01 00:41:00,54.8,51.0,29.92,WNW,296,4.6,4.6,87,0.00,,SCT,0.00,0.0,WeatherDisplay:10.37,2013-08-01 05:41:00,
2013-08-01 00:46:00,54.7,50.9,29.92,WNW,296,4.6,4.6,87,0.00,,SCT,0.00,0.0,WeatherDisplay:10.37,2013-08-01 05:46:00,
2013-08-01 00:51:00,54.5,50.7,29.92,WNW,296,4.6,4.6,87,0.00,,SCT,0.00,0.0,WeatherDisplay:10.37,2013-08-01 05:51:00,
2013-08-01 00:56:00,54.5,50.7,29.92,WNW,296,4.6,4.6,87,0.00,,SCT,0.00,0.0,WeatherDisplay:10.37,2013-08-01 05:56:00,
2013-08-01 01:01:00,54.4,50.6,29.92,WNW,296,4.6,4.6,87,0.00,,SCT,0.00,0.0,WeatherDisplay:10.37,2013-08-01 06:01:00,
2013-08-01 01:07:00,54.2,50.4,29.92,WNW,296,6.0,6.0,87,0.00,,SCT,0.00,0.0,WeatherDisplay:10.37,2013-08-01 06:07:00,
2013-08-01 01:12:00,54.1,50.3,29.92,WNW,288,4.6,4.6,87,0.00,,SCT,0.00,0.0,WeatherDisplay:10.37,2013-08-01 06:12:00,
2013-08-01 01:17:00,53.8,50.0,29.92,WNW,285,6.9,6.9,87,0.00,,SCT,0.00,0.0,WeatherDisplay:10.37,2013-08-01 06:17:00,
2013-08-01 01:22:00,53.6,49.8,29.92,WNW,285,6.9,6.9,87,0.00,,SCT,0.00,0.0,WeatherDisplay:10.37,2013-08-01 06:22:00,
2013-08-01 01:27:00,53.5,49.7,29.92,WNW,285,5.8,5.8,87,0.00,,SCT,0.00,0.0,WeatherDisplay:10.37,2013-08-01 06:27:00,
2013-08-01 01:32:00,53.3,49.5,29.92,WNW,284,3.5,3.5,87,0.00,,SCT,0.00,0.0,WeatherDisplay:10.37,2013-08-01 06:32:00,
2013-08-01 01:37:00,53.2,49.4,29.92,WNW,283,4.0,4.0,87,0.00,,SCT,0.00,0.0,WeatherDisplay:10.37,2013-08-01 06:37:00,
2013-08-01 01:42:00,53.1,49.3,29.92,WNW,283,4.0,4.0,87,0.00,,SCT,0.00,0.0,WeatherDisplay:10.37,2013-08-01 06:42:00,
2013-08-01 01:47:00,52.8,49.0,29.92,WNW,283,4.6,4.6,87,0.00,,SCT,0.00,0.0,WeatherDisplay:10.37,2013-08-01 06:47:00,
2013-08-01 01:53:00,52.6,48.8,29.92,WNW,283,5.0,5.0,87,0.00,,SCT,0.00,0.0,WeatherDisplay:10.37,2013-08-01 06:53:00,
2013-08-01 01:58:00,52.5,48.7,29.92,WNW,283,3.5,3.5,87,0.00,,SCT,0.00,0.0,WeatherDisplay:10.37,2013-08-01 06:58:00,
2013-08-01 02:03:00,52.3,48.5,29.92,WNW,283,4.0,4.0,87,0.00,,SCT,0.00,0.0,WeatherDisplay:10.37,2013-08-01 07:03:00,
2013-08-01 02:08:00,52.0,48.3,29.92,WNW,283,5.8,5.8,87,0.00,,SCT,0.00,0.0,WeatherDisplay:10.37,2013-08-01 07:08:00,
2013-08-01 02:13:00,51.9,48.5,29.92,WNW,283,5.8,5.8,88,0.00,,SCT,0.00,0.0,WeatherDisplay:10.37,2013-08-01 07:13:00,
2013-08-01 02:18:00,51.7,48.3,29.92,WNW,282,6.0,6.0,88,0.00,,SCT,0.00,0.0,WeatherDisplay:10.37,2013-08-01 07:18:00,
2013-08-01 02:23:00,51.6,48.2,29.93,WNW,282,5.0,5.0,88,0.00,,SCT,0.00,0.0,WeatherDisplay:10.37,2013-08-01 07:23:00,
2013-08-01 02:28:00,51.6,48.2,29.92,West,281,4.6,4.6,88,0.00,,SCT,0.00,0.0,WeatherDisplay:10.37,2013-08-01 07:28:00,
2013-08-01 02:34:00,51.4,48.0,29.92,West,281,6.9,6.9,88,0.00,,SCT,0.00,0.0,WeatherDisplay:10.37,2013-08-01 07:34:00,
2013-08-01 02:39:00,51.3,47.9,29.92,West,281,6.9,6.9,88,0.00,,SCT,0.00,0.0,WeatherDisplay:10.37,2013-08-01 07:39:00,
2013-08-01 02:44:00,51.1,48.0,29.92,West,281,5.8,5.8,89,0.00,,SCT,0.00,0.0,WeatherDisplay:10.37,2013-08-01 07:44:00,
2013-08-01 02:49:00,51.1,48.0,29.93,WNW,285,6.9,6.9,89,0.00,,SCT,0.00,0.0,WeatherDisplay:10.37,2013-08-01 07:49:00,
2013-08-01 02:54:00,51.0,48.2,29.92,WNW,284,5.0,7.0,90,0.00,,SCT,0.00,0.0,WeatherDisplay:10.37,2013-08-01 07:54:00,
2013-08-01 02:59:00,51.0,48.2,29.93,WNW,285,5.0,7.0,90,0.00,,SCT,0.00,0.0,WeatherDisplay:10.37,2013-08-01 07:59:00,
2013-08-01 03:04:00,51.0,48.2,29.93,WNW,284,5.0,6.0,90,0.00,,SCT,0.00,0.0,WeatherDisplay:10.37,2013-08-01 08:04:00,
2013-08-01 03:09:00,50.8,48.3,29.92,WNW,284,3.0,5.0,91,0.00,,SCT,0.00,0.0,WeatherDisplay:10.37,2013-08-01 08:09:00,
2013-08-01 03:15:00,50.8,48.3,29.92,WNW,285,4.6,4.6,91,0.00,,SCT,0.00,0.0,WeatherDisplay:10.37,2013-08-01 08:15:00,
2013-08-01 03:20:00,50.8,48.3,29.92,WNW,285,3.5,3.5,91,0.00,,SCT,0.00,0.0,WeatherDisplay:10.37,2013-08-01 08:20:00,
2013-08-01 03:25:00,50.8,48.6,29.92,WNW,286,5.8,5.8,92,0.00,,SCT,0.00,0.0,WeatherDisplay:10.37,2013-08-01 08:25:00,
2013-08-01 03:30:00,50.8,48.6,29.92,WNW,286,5.8,5.8,92,0.00,,SCT,0.00,0.0,WeatherDisplay:10.37,2013-08-01 08:30:00,
2013-08-01 03:36:00,50.8,48.6,29.92,WNW,284,4.6,4.6,92,0.00,,SCT,0.00,0.0,WeatherDisplay:10.37,2013-08-01 08:36:00,
2013-08-01 03:41:00,50.8,48.6,29.92,West,281,6.0,6.0,92,0.00,,SCT,0.00,0.0,WeatherDisplay:10.37,2013-08-01 08:41:00,
2013-08-01 03:46:00,50.8,47.7,29.92,WNW,290,5.8,5.8,89,0.00,,SCT,0.00,0.0,WeatherDisplay:10.37,2013-08-01 08:46:00,
2013-08-01 03:52:00,50.8,48.6,29.92,WNW,288,5.8,5.8,92,0.00,,SCT,0.00,0.0,WeatherDisplay:10.37,2013-08-01 08:52:00,
2013-08-01 03:57:00,50.8,48.6,29.92,West,279,8.1,8.1,92,0.00,,SCT,0.00,0.0,WeatherDisplay:10.37,2013-08-01 08:57:00,
2013-08-01 04:03:00,50.8,48.6,29.92,West,277,8.1,8.1,92,0.00,,SCT,0.00,0.0,WeatherDisplay:10.37,2013-08-01 09:03:00,
2013-08-01 04:08:00,50.7,48.5,29.92,WNW,292,7.0,7.0,92,0.00,,SCT,0.00,0.0,WeatherDisplay:10.37,2013-08-01 09:08:00,
2013-08-01 04:14:00,50.7,48.5,29.92,WNW,291,8.1,8.1,92,0.00,,SCT,0.00,0.0,WeatherDisplay:10.37,2013-08-01 09:14:00,
2013-08-01 04:20:00,50.7,48.5,29.92,WNW,290,8.1,8.1,92,0.00,,SCT,0.00,0.0,WeatherDisplay:10.37,2013-08-01 09:20:00,
2013-08-01 04:25:00,50.5,48.3,29.92,WNW,284,9.2,9.2,92,0.00,,SCT,0.00,0.0,WeatherDisplay:10.37,2013-08-01 09:25:00,
2013-08-01 04:30:00,50.5,48.3,29.92,WNW,283,6.9,6.9,92,0.00,,SCT,0.00,0.0,WeatherDisplay:10.37,2013-08-01 09:30:00,
2013-08-01 04:35:00,50.5,48.3,29.92,WNW,283,5.8,5.8,92,0.00,,SCT,0.00,0.0,WeatherDisplay:10.37,2013-08-01 09:35:00,
2013-08-01 04:41:00,50.5,48.3,29.92,WNW,283,7.0,7.0,92,0.00,,SCT,0.00,0.0,WeatherDisplay:10.37,2013-08-01 09:41:00,
2013-08-01 04:46:00,50.5,48.3,29.92,WNW,288,8.1,8.1,92,0.00,,SCT,0.00,0.0,WeatherDisplay:10.37,2013-08-01 09:46:00,
2013-08-01 04:52:00,50.4,48.5,29.92,West,278,6.9,6.9,93,0.00,,SCT,0.00,0.0,WeatherDisplay:10.37,2013-08-01 09:52:00,
2013-08-01 04:57:00,50.4,48.5,29.92,WNW,289,6.9,6.9,93,0.00,,SCT,0.00,0.0,WeatherDisplay:10.37,2013-08-01 09:57:00,
2013-08-01 05:03:00,50.4,48.2,29.92,WNW,290,9.2,9.2,92,0.00,,SCT,0.00,0.0,WeatherDisplay:10.37,2013-08-01 10:03:00,
2013-08-01 05:08:00,50.2,48.0,29.92,WNW,300,7.0,7.0,92,0.00,,SCT,0.00,0.0,WeatherDisplay:10.37,2013-08-01 10:08:00,
2013-08-01 05:14:00,50.2,48.0,29.93,WNW,284,8.1,8.1,92,0.00,,SCT,0.00,0.0,WeatherDisplay:10.37,2013-08-01 10:14:00,
2013-08-01 05:19:00,50.2,47.9,29.93,WNW,285,7.0,9.0,92,0.00,,SCT,0.00,0.0,WeatherDisplay:10.37,2013-08-01 10:19:00,
2013-08-01 05:25:00,50.1,47.9,29.93,WNW,288,9.2,9.2,92,0.00,,SCT,0.00,0.0,WeatherDisplay:10.37,2013-08-01 10:25:00,
2013-08-01 05:31:00,50.1,47.9,29.93,WNW,284,9.2,9.2,92,0.00,,SCT,0.00,0.0,WeatherDisplay:10.37,2013-08-01 10:31:00,
2013-08-01 05:37:00,49.9,47.7,29.93,WNW,285,8.1,8.1,92,0.00,,SCT,0.00,0.0,WeatherDisplay:10.37,2013-08-01 10:37:00,
2013-08-01 05:43:00,49.8,47.6,29.93,WNW,292,9.2,9.2,92,0.00,,SCT,0.00,0.0,WeatherDisplay:10.37,2013-08-01 10:43:00,
2013-08-01 05:48:00,49.8,47.6,29.93,West,279,9.2,9.2,92,0.00,,SCT,0.00,0.0,WeatherDisplay:10.37,2013-08-01 10:48:00,
2013-08-01 05:54:00,49.8,47.6,29.93,WNW,297,11.5,11.5,92,0.00,,SCT,0.00,0.0,WeatherDisplay:10.37,2013-08-01 10:54:00,
2013-08-01 05:59:00,49.6,47.4,29.93,WNW,289,10.4,10.4,92,0.00,,SCT,0.00,0.0,WeatherDisplay:10.37,2013-08-01 10:59:00,
2013-08-01 06:04:00,49.6,47.4,29.93,WNW,282,7.0,7.0,92,0.00,,SCT,0.00,0.0,WeatherDisplay:10.37,2013-08-01 11:04:00,
2013-08-01 06:09:00,49.5,47.3,29.93,WNW,283,6.0,8.0,92,0.00,,SCT,0.00,0.0,WeatherDisplay:10.37,2013-08-01 11:09:00,
2013-08-01 06:15:00,49.5,47.3,29.93,WNW,285,6.9,6.9,92,0.00,,SCT,0.00,0.0,WeatherDisplay:10.37,2013-08-01 11:15:00,
2013-08-01 06:24:00,49.4,47.2,29.94,WNW,285,4.6,4.6,92,0.00,,SCT,0.00,0.0,WeatherDisplay:10.37,2013-08-01 11:24:00,
2013-08-01 06:29:00,49.4,47.5,29.94,WNW,285,4.0,4.0,93,0.00,,SCT,0.00,0.0,WeatherDisplay:10.37,2013-08-01 11:29:00,
2013-08-01 06:34:00,49.4,47.5,29.94,WNW,285,4.0,4.0,93,0.00,,SCT,0.00,0.0,WeatherDisplay:10.37,2013-08-01 11:34:00,
2013-08-01 06:40:00,49.4,47.5,29.94,WNW,285,3.5,3.5,93,0.00,,SCT,0.00,0.0,WeatherDisplay:10.37,2013-08-01 11:40:00,
2013-08-01 06:45:00,49.4,47.5,29.94,WNW,285,3.5,3.5,93,0.00,,SCT,0.00,0.0,WeatherDisplay:10.37,2013-08-01 11:45:00,
2013-08-01 06:50:00,49.4,47.5,29.94,WNW,285,4.6,4.6,93,0.00,,SCT,0.00,0.0,WeatherDisplay:10.37,2013-08-01 11:50:00,
2013-08-01 06:55:00,49.5,47.8,29.94,WNW,285,5.0,5.0,94,0.00,,SCT,0.00,0.0,WeatherDisplay:10.37,2013-08-01 11:55:00,
2013-08-01 07:01:00,49.6,47.9,29.94,West,275,6.0,6.0,94,0.00,OVC,SCT,0.00,0.0,WeatherDisplay:10.37,2013-08-01 12:01:00,
2013-08-01 07:06:00,49.6,48.2,29.94,West,266,6.9,6.9,95,0.00,OVC,SCT,0.00,0.0,WeatherDisplay:10.37,2013-08-01 12:06:00,
2013-08-01 07:12:00,49.9,48.5,29.94,West,266,6.0,6.0,95,0.00,OVC,SCT,0.00,0.0,WeatherDisplay:10.37,2013-08-01 12:12:00,
2013-08-01 07:18:00,50.1,48.7,29.94,West,266,5.8,5.8,95,0.00,OVC,SCT,0.00,0.0,WeatherDisplay:10.37,2013-08-01 12:18:00,
2013-08-01 07:23:00,50.4,49.3,29.94,West,261,4.6,4.6,96,0.00,OVC,SCT,0.00,0.0,WeatherDisplay:10.37,2013-08-01 12:23:00,
2013-08-01 07:29:00,50.7,49.6,29.95,West,261,7.0,7.0,96,0.00,OVC,SCT,0.00,0.0,WeatherDisplay:10.37,2013-08-01 12:29:00,
2013-08-01 07:34:00,51.0,49.9,29.94,West,261,5.0,5.0,96,0.00,OVC,SCT,0.00,0.0,WeatherDisplay:10.37,2013-08-01 12:34:00,
2013-08-01 07:39:00,51.4,50.6,29.94,West,261,3.5,3.7,97,0.00,OVC,SCT,0.00,0.0,WeatherDisplay:10.37,2013-08-01 12:39:00,
2013-08-01 07:44:00,51.9,51.4,29.94,West,261,4.6,4.6,98,0.00,OVC,SCT,0.00,0.0,WeatherDisplay:10.37,2013-08-01 12:44:00,
2013-08-01 07:49:00,52.5,51.9,29.94,West,269,3.0,11.0,98,0.00,OVC,SCT,0.00,0.0,WeatherDisplay:10.37,2013-08-01 12:49:00,
2013-08-01 07:54:00,53.3,53.0,29.94,WNW,285,10.4,10.4,99,0.00,OVC,SCT,0.00,0.0,WeatherDisplay:10.37,2013-08-01 12:54:00,
2013-08-01 08:00:00,53.8,53.5,29.94,WSW,251,6.9,6.9,99,0.00,OVC,SCT,0.00,0.0,WeatherDisplay:10.37,2013-08-01 13:00:00,
2013-08-01 08:05:00,54.4,54.1,29.94,NW,308,8.1,8.1,99,0.00,OVC,SCT,0.00,0.0,WeatherDisplay:10.37,2013-08-01 13:05:00,
2013-08-01 08:10:00,54.8,54.2,29.94,West,266,11.5,11.5,98,0.00,OVC,SCT,0.00,0.0,WeatherDisplay:10.37,2013-08-01 13:10:00,
2013-08-01 08:16:00,55.6,54.5,29.94,WNW,283,10.0,10.0,96,0.00,OVC,SCT,0.00,0.0,WeatherDisplay:10.37,2013-08-01 13:16:00,
2013-08-01 08:21:00,56.2,53.9,29.94,WNW,292,11.5,11.5,92,0.00,OVC,SCT,0.00,0.0,WeatherDisplay:10.37,2013-08-01 13:21:00,
2013-08-01 08:26:00,56.9,53.4,29.94,West,275,15.0,15.0,88,0.00,OVC,SCT,0.00,0.0,WeatherDisplay:10.37,2013-08-01 13:26:00,
2013-08-01 08:33:00,57.8,53.3,29.94,NW,306,10.4,10.4,85,0.00,OVC,SCT,0.00,0.0,WeatherDisplay:10.37,2013-08-01 13:33:00,
2013-08-01 08:38:00,58.6,53.8,29.94,WNW,301,10.4,10.4,84,0.00,OVC,SCT,0.00,0.0,WeatherDisplay:10.37,2013-08-01 13:38:00,
2013-08-01 08:43:00,59.9,53.7,29.94,West,266,8.1,8.1,80,0.00,OVC,SCT,0.00,0.0,WeatherDisplay:10.37,2013-08-01 13:43:00,
2013-08-01 08:49:00,61.6,54.3,29.94,WNW,283,11.5,11.5,77,0.00,OVC,SCT,0.00,0.0,WeatherDisplay:10.37,2013-08-01 13:49:00,
2013-08-01 08:55:00,62.1,54.1,29.94,NW,323,11.5,11.5,75,0.00,OVC,SCT,0.00,0.0,WeatherDisplay:10.37,2013-08-01 13:55:00,
2013-08-01 09:00:00,62.0,53.6,29.94,WNW,287,6.9,6.9,74,0.00,OVC,SCT,0.00,0.0,WeatherDisplay:10.37,2013-08-01 14:00:00,
2013-08-01 09:05:00,62.0,54.0,29.94,WNW,291,8.1,8.1,75,0.00,OVC,SCT,0.00,0.0,WeatherDisplay:10.37,2013-08-01 14:05:00,
2013-08-01 09:11:00,61.8,53.8,29.94,WNW,290,6.9,6.9,75,0.00,OVC,SCT,0.00,0.0,WeatherDisplay:10.37,2013-08-01 14:11:00,
2013-08-01 09:18:00,61.6,53.6,29.94,WNW,283,9.0,9.0,75,0.00,OVC,SCT,0.00,0.0,WeatherDisplay:10.37,2013-08-01 14:18:00,
2013-08-01 09:23:00,61.8,54.2,29.94,WNW,291,11.5,11.5,76,0.00,OVC,SCT,0.00,0.0,WeatherDisplay:10.37,2013-08-01 14:23:00,
2013-08-01 09:28:00,62.3,54.6,29.94,WNW,283,8.1,8.1,76,0.00,OVC,SCT,0.00,0.0,WeatherDisplay:10.37,2013-08-01 14:28:00,
2013-08-01 09:33:00,62.7,55.0,29.94,WNW,282,6.9,6.9,76,0.00,OVC,SCT,0.00,0.0,WeatherDisplay:10.37,2013-08-01 14:33:00,
2013-08-01 09:39:00,63.1,55.0,29.94,WNW,282,6.0,6.0,75,0.00,OVC,SCT,0.00,0.0,WeatherDisplay:10.37,2013-08-01 14:39:00,
2013-08-01 09:44:00,63.2,54.4,29.93,West,266,9.2,9.2,73,0.00,OVC,SCT,0.00,0.0,WeatherDisplay:10.37,2013-08-01 14:44:00,
2013-08-01 09:50:00,63.5,54.3,29.93,NW,306,10.4,10.4,72,0.00,OVC,SCT,0.00,0.0,WeatherDisplay:10.37,2013-08-01 14:50:00,
2013-08-01 09:55:00,64.2,54.2,29.93,WNW,285,10.4,10.4,70,0.00,OVC,SCT,0.00,0.0,WeatherDisplay:10.37,2013-08-01 14:55:00,
2013-08-01 10:00:00,64.3,55.1,29.93,West,261,12.0,12.0,72,0.00,OVC,SCT,0.00,0.0,WeatherDisplay:10.37,2013-08-01 15:00:00,
2013-08-01 10:05:00,64.5,54.9,29.94,West,277,16.1,16.1,71,0.00,OVC,SCT,0.00,0.0,WeatherDisplay:10.37,2013-08-01 15:05:00,
2013-08-01 10:12:00,65.0,54.6,29.93,WNW,283,9.2,9.2,69,0.00,OVC,SCT,0.00,0.0,WeatherDisplay:10.37,2013-08-01 15:12:00,
2013-08-01 10:17:00,65.5,54.7,29.93,WNW,287,11.5,11.5,68,0.00,OVC,SCT,0.00,0.0,WeatherDisplay:10.37,2013-08-01 15:17:00,
2013-08-01 10:22:00,65.8,54.5,29.93,West,271,13.0,13.0,67,0.00,OVC,FEW,0.00,0.0,WeatherDisplay:10.37,2013-08-01 15:22:00,
2013-08-01 10:28:00,65.8,55.3,29.93,WNW,298,11.5,11.5,69,0.00,OVC,FEW,0.00,0.0,WeatherDisplay:10.37,2013-08-01 15:28:00,
2013-08-01 10:34:00,66.4,55.1,29.93,West,275,16.1,16.1,67,0.00,OVC,FEW,0.00,0.0,WeatherDisplay:10.37,2013-08-01 15:34:00,
2013-08-01 10:39:00,66.4,55.1,29.93,West,281,8.0,20.0,67,0.00,OVC,FEW,0.00,0.0,WeatherDisplay:10.37,2013-08-01 15:39:00,
2013-08-01 10:45:00,66.8,55.1,29.93,West,266,11.5,11.5,66,0.00,OVC,FEW,0.00,0.0,WeatherDisplay:10.37,2013-08-01 15:45:00,
2013-08-01 10:50:00,67.1,55.4,29.93,WNW,285,12.7,12.7,66,0.00,OVC,FEW,0.00,0.0,WeatherDisplay:10.37,2013-08-01 15:50:00,
2013-08-01 10:55:00,67.1,55.4,29.93,West,261,19.6,19.6,66,0.00,OVC,FEW,0.00,0.0,WeatherDisplay:10.37,2013-08-01 15:55:00,
2013-08-01 11:01:00,67.3,55.5,29.93,West,278,19.6,19.6,66,0.00,OVC,FEW,0.00,0.0,WeatherDisplay:10.37,2013-08-01 16:01:00,
2013-08-01 11:06:00,67.6,54.1,29.93,West,279,16.0,16.0,62,0.00,OVC,FEW,0.00,0.0,WeatherDisplay:10.37,2013-08-01 16:06:00,
2013-08-01 11:12:00,67.6,54.6,29.94,West,266,16.1,16.1,63,0.00,OVC,FEW,0.00,0.0,WeatherDisplay:10.37,2013-08-01 16:12:00,
2013-08-01 11:17:00,67.8,53.9,29.93,WNW,290,15.0,15.0,61,0.00,OVC,FEW,0.00,0.0,WeatherDisplay:10.37,2013-08-01 16:17:00,
2013-08-01 11:23:00,68.1,54.1,29.93,West,266,13.0,13.0,61,0.00,OVC,FEW,0.00,0.0,WeatherDisplay:10.37,2013-08-01 16:23:00,
2013-08-01 11:28:00,67.9,55.7,29.93,WSW,254,12.7,12.7,65,0.00,OVC,FEW,0.00,0.0,WeatherDisplay:10.37,2013-08-01 16:28:00,
2013-08-01 11:33:00,67.9,54.0,29.93,West,279,15.0,15.0,61,0.00,OVC,FEW,0.00,0.0,WeatherDisplay:10.37,2013-08-01 16:33:00,
2013-08-01 11:38:00,67.6,55.0,29.93,WNW,282,15.0,15.0,64,0.00,OVC,FEW,0.00,0.0,WeatherDisplay:10.37,2013-08-01 16:38:00,
2013-08-01 11:44:00,67.8,54.3,29.93,NW,324,17.3,17.3,62,0.00,OVC,FEW,0.00,0.0,WeatherDisplay:10.37,2013-08-01 16:44:00,
2013-08-01 11:49:00,68.4,55.3,29.93,NW,313,11.5,11.5,63,0.00,OVC,FEW,0.00,0.0,WeatherDisplay:10.37,2013-08-01 16:49:00,
2013-08-01 11:54:00,67.8,54.3,29.93,NNW,339,12.7,12.7,62,0.00,OVC,FEW,0.00,0.0,WeatherDisplay:10.37,2013-08-01 16:54:00,
2013-08-01 11:59:00,68.1,55.0,29.93,West,277,12.7,12.7,63,0.00,OVC,FEW,0.00,0.0,WeatherDisplay:10.37,2013-08-01 16:59:00,
2013-08-01 12:05:00,68.8,54.3,29.93,NW,310,11.5,11.5,60,0.00,OVC,FEW,0.00,0.0,WeatherDisplay:10.37,2013-08-01 17:05:00,
2013-08-01 12:10:00,68.4,54.4,29.93,West,266,15.0,15.0,61,0.00,OVC,FEW,0.00,0.0,WeatherDisplay:10.37,2013-08-01 17:10:00,
2013-08-01 12:15:00,68.9,54.0,29.93,West,266,15.0,15.0,59,0.00,OVC,FEW,0.00,0.0,WeatherDisplay:10.37,2013-08-01 17:15:00,
2013-08-01 12:21:00,69.1,53.7,29.93,North,351,12.7,12.7,58,0.00,OVC,FEW,0.00,0.0,WeatherDisplay:10.37,2013-08-01 17:21:00,
2013-08-01 12:26:00,68.9,53.5,29.93,WNW,284,15.0,15.0,58,0.00,OVC,FEW,0.00,0.0,WeatherDisplay:10.37,2013-08-01 17:26:00,
2013-08-01 12:31:00,69.3,52.4,29.93,West,266,17.3,17.3,55,0.00,OVC,FEW,0.00,0.0,WeatherDisplay:10.37,2013-08-01 17:31:00,
2013-08-01 12:37:00,69.6,52.2,29.93,NW,313,21.9,21.9,54,0.00,OVC,FEW,0.00,0.0,WeatherDisplay:10.37,2013-08-01 17:37:00,
2013-08-01 12:42:00,69.6,52.7,29.93,West,266,13.8,13.8,55,0.00,OVC,FEW,0.00,0.0,WeatherDisplay:10.37,2013-08-01 17:42:00,
2013-08-01 12:48:00,69.1,54.6,29.93,WNW,292,19.6,19.6,60,0.00,OVC,FEW,0.00,0.0,WeatherDisplay:10.37,2013-08-01 17:48:00,
2013-08-01 12:53:00,69.1,52.7,29.93,NW,306,15.0,15.0,56,0.00,OVC,FEW,0.00,0.0,WeatherDisplay:10.37,2013-08-01 17:53:00,
2013-08-01 12:58:00,69.6,53.2,29.93,NW,304,20.7,20.7,56,0.00,OVC,FEW,0.00,0.0,WeatherDisplay:10.37,2013-08-01 17:58:00,
2013-08-01 13:04:00,69.9,52.5,29.93,WNW,290,15.0,15.0,54,0.00,OVC,FEW,0.00,0.0,WeatherDisplay:10.37,2013-08-01 18:04:00,
2013-08-01 13:09:00,69.3,52.4,29.93,WNW,289,12.7,12.7,55,0.00,OVC,FEW,0.00,0.0,WeatherDisplay:10.37,2013-08-01 18:09:00,
2013-08-01 13:15:00,69.9,54.0,29.92,West,281,10.4,10.4,57,0.00,OVC,FEW,0.00,0.0,WeatherDisplay:10.37,2013-08-01 18:15:00,
2013-08-01 13:21:00,69.9,52.5,29.92,WNW,286,19.6,19.6,54,0.00,OVC,FEW,0.00,0.0,WeatherDisplay:10.37,2013-08-01 18:21:00,
2013-08-01 13:27:00,69.3,52.9,29.92,NW,310,11.5,11.5,56,0.00,OVC,FEW,0.00,0.0,WeatherDisplay:10.37,2013-08-01 18:27:00,
2013-08-01 13:33:00,69.4,53.5,29.92,WNW,288,10.4,10.4,57,0.00,OVC,FEW,0.00,0.0,WeatherDisplay:10.37,2013-08-01 18:33:00,
2013-08-01 13:38:00,69.9,53.0,29.92,WNW,294,12.7,12.7,55,0.00,OVC,FEW,0.00,0.0,WeatherDisplay:10.37,2013-08-01 18:38:00,
2013-08-01 13:44:00,69.9,53.0,29.92,West,276,15.0,15.0,55,0.00,OVC,FEW,0.00,0.0,WeatherDisplay:10.37,2013-08-01 18:44:00,
2013-08-01 13:49:00,69.4,54.0,29.92,WNW,295,9.0,16.0,58,0.00,OVC,FEW,0.00,0.0,WeatherDisplay:10.37,2013-08-01 18:49:00,
2013-08-01 13:56:00,68.8,52.9,29.93,NW,306,9.0,9.0,57,0.00,OVC,FEW,0.00,0.0,WeatherDisplay:10.37,2013-08-01 18:56:00,
2013-08-01 14:01:00,68.8,53.9,29.92,NNW,327,9.0,9.0,59,0.00,OVC,FEW,0.00,0.0,WeatherDisplay:10.37,2013-08-01 19:01:00,
2013-08-01 14:07:00,68.9,54.4,29.92,West,281,13.0,13.0,60,0.00,OVC,FEW,0.00,0.0,WeatherDisplay:10.37,2013-08-01 19:07:00,
2013-08-01 14:12:00,69.3,53.9,29.92,NW,317,10.4,10.4,58,0.00,OVC,FEW,0.00,0.0,WeatherDisplay:10.37,2013-08-01 19:12:00,
2013-08-01 14:18:00,69.9,53.5,29.92,West,275,11.5,11.5,56,0.00,OVC,FEW,0.00,0.0,WeatherDisplay:10.37,2013-08-01 19:18:00,
2013-08-01 14:23:00,71.3,54.3,29.91,WNW,300,9.2,9.2,55,0.00,OVC,FEW,0.00,0.0,WeatherDisplay:10.37,2013-08-01 19:23:00,
2013-08-01 14:28:00,71.1,54.1,29.91,WSW,257,12.0,12.0,55,0.00,OVC,FEW,0.00,0.0,WeatherDisplay:10.37,2013-08-01 19:28:00,
2013-08-01 14:34:00,70.1,53.7,29.91,WSW,240,17.3,17.3,56,0.00,OVC,FEW,0.00,0.0,WeatherDisplay:10.37,2013-08-01 19:34:00,
2013-08-01 14:39:00,69.4,53.5,29.91,WNW,284,10.0,15.0,57,0.00,OVC,FEW,0.00,0.0,WeatherDisplay:10.37,2013-08-01 19:39:00,
2013-08-01 14:44:00,69.1,55.1,29.91,WNW,288,10.4,10.4,61,0.00,OVC,FEW,0.00,0.0,WeatherDisplay:10.37,2013-08-01 19:44:00,
2013-08-01 14:49:00,68.9,55.8,29.91,WNW,287,5.0,10.0,63,0.00,OVC,FEW,0.00,0.0,WeatherDisplay:10.37,2013-08-01 19:49:00,
2013-08-01 14:55:00,68.9,54.4,29.91,NW,306,7.0,7.0,60,0.00,OVC,FEW,0.00,0.0,WeatherDisplay:10.37,2013-08-01 19:55:00,
2013-08-01 15:00:00,69.9,55.8,29.90,WNW,282,6.0,6.0,61,0.00,OVC,FEW,0.00,0.0,WeatherDisplay:10.37,2013-08-01 20:00:00,
2013-08-01 15:05:00,70.4,54.9,29.90,West,281,12.7,12.7,58,0.00,OVC,FEW,0.00,0.0,WeatherDisplay:10.37,2013-08-01 20:05:00,
2013-08-01 15:10:00,70.1,54.2,29.90,WNW,290,11.5,11.5,57,0.00,OVC,FEW,0.00,0.0,WeatherDisplay:10.37,2013-08-01 20:10:00,
2013-08-01 15:15:00,69.6,53.2,29.90,WNW,294,12.7,12.7,56,0.00,OVC,FEW,0.00,0.0,WeatherDisplay:10.37,2013-08-01 20:15:00,
2013-08-01 15:20:00,70.1,55.6,29.90,West,278,9.2,9.2,60,0.00,OVC,FEW,0.00,0.0,WeatherDisplay:10.37,2013-08-01 20:20:00,
2013-08-01 15:25:00,69.8,54.8,29.90,West,275,10.4,10.4,59,0.00,OVC,FEW,0.00,0.0,WeatherDisplay:10.37,2013-08-01 20:25:00,
2013-08-01 15:31:00,69.4,54.9,29.90,West,266,8.0,8.0,60,0.00,OVC,FEW,0.00,0.0,WeatherDisplay:10.37,2013-08-01 20:31:00,
2013-08-01 15:36:00,69.8,54.4,29.90,West,281,7.0,7.0,58,0.00,OVC,FEW,0.00,0.0,WeatherDisplay:10.37,2013-08-01 20:36:00,
2013-08-01 15:42:00,69.3,53.9,29.90,NW,309,8.0,8.0,58,0.00,OVC,FEW,0.00,0.0,WeatherDisplay:10.37,2013-08-01 20:42:00,
2013-08-01 15:44:00,69.3,54.8,29.90,NW,316,6.9,6.9,60,0.00,OVC,FEW,0.00,0.0,WeatherDisplay:10.37,2013-08-01 20:44:00,
2013-08-01 15:49:00,69.1,54.6,29.90,WNW,302,3.5,3.5,60,0.00,OVC,FEW,0.00,0.0,WeatherDisplay:10.37,2013-08-01 20:49:00,
2013-08-01 15:54:00,68.9,54.4,29.90,WNW,302,3.5,3.5,60,0.00,OVC,FEW,0.00,0.0,WeatherDisplay:10.37,2013-08-01 20:54:00,
2013-08-01 15:59:00,69.3,54.4,29.90,West,281,6.9,6.9,59,0.00,OVC,FEW,0.00,0.0,WeatherDisplay:10.37,2013-08-01 20:59:00,
2013-08-01 16:05:00,69.4,54.9,29.89,WNW,290,10.0,10.0,60,0.00,OVC,FEW,0.00,0.0,WeatherDisplay:10.37,2013-08-01 21:05:00,
2013-08-01 16:10:00,70.3,53.9,29.89,West,278,9.2,9.2,56,0.00,OVC,FEW,0.00,0.0,WeatherDisplay:10.37,2013-08-01 21:10:00,
2013-08-01 16:15:00,70.8,54.8,29.89,NW,309,8.1,8.1,57,0.00,OVC,FEW,0.00,0.0,WeatherDisplay:10.37,2013-08-01 21:15:00,
2013-08-01 16:20:00,70.9,54.4,29.89,NW,319,12.7,12.7,56,0.00,OVC,FEW,0.00,0.0,WeatherDisplay:10.37,2013-08-01 21:20:00,
2013-08-01 16:25:00,70.8,54.3,29.89,NNW,329,8.0,8.0,56,0.00,OVC,FEW,0.00,0.0,WeatherDisplay:10.37,2013-08-01 21:25:00,
2013-08-01 16:30:00,70.3,53.9,29.89,WNW,290,6.9,6.9,56,0.00,OVC,FEW,0.00,0.0,WeatherDisplay:10.37,2013-08-01 21:30:00,
2013-08-01 16:35:00,70.1,55.1,29.89,NNW,334,8.1,8.1,59,0.00,OVC,FEW,0.00,0.0,WeatherDisplay:10.37,2013-08-01 21:35:00,
2013-08-01 16:41:00,69.9,55.4,29.89,NNW,335,4.6,4.6,60,0.00,OVC,FEW,0.00,0.0,WeatherDisplay:10.37,2013-08-01 21:41:00,
2013-08-01 16:46:00,69.9,54.9,29.89,NNW,335,4.0,4.0,59,0.00,OVC,FEW,0.00,0.0,WeatherDisplay:10.37,2013-08-01 21:46:00,
2013-08-01 16:51:00,70.1,56.0,29.89,NNW,332,3.5,3.5,61,0.00,OVC,FEW,0.00,0.0,WeatherDisplay:10.37,2013-08-01 21:51:00,
2013-08-01 16:57:00,70.8,54.8,29.89,NNW,331,4.6,4.6,57,0.00,OVC,FEW,0.00,0.0,WeatherDisplay:10.37,2013-08-01 21:57:00,
2013-08-01 17:02:00,70.4,54.0,29.88,North,2,7.0,7.0,56,0.00,OVC,FEW,0.00,0.0,WeatherDisplay:10.37,2013-08-01 22:02:00,
2013-08-01 17:07:00,70.3,53.4,29.88,North,360,5.8,5.8,55,0.00,OVC,FEW,0.00,0.0,WeatherDisplay:10.37,2013-08-01 22:07:00,
2013-08-01 17:13:00,70.9,54.4,29.88,WNW,299,8.1,8.1,56,0.00,OVC,FEW,0.00,0.0,WeatherDisplay:10.37,2013-08-01 22:13:00,
2013-08-01 17:18:00,71.3,55.3,29.88,WNW,302,6.0,6.0,57,0.00,OVC,FEW,0.00,0.0,WeatherDisplay:10.37,2013-08-01 22:18:00,
2013-08-01 17:23:00,71.3,54.3,29.88,WNW,298,7.0,7.0,55,0.00,OVC,FEW,0.00,0.0,WeatherDisplay:10.37,2013-08-01 22:23:00,
2013-08-01 17:28:00,71.5,54.5,29.88,NW,304,5.0,5.0,55,0.00,OVC,FEW,0.00,0.0,WeatherDisplay:10.37,2013-08-01 22:28:00,
2013-08-01 17:34:00,71.1,55.1,29.87,NNW,329,9.2,9.2,57,0.00,OVC,FEW,0.00,0.0,WeatherDisplay:10.37,2013-08-01 22:34:00,
2013-08-01 17:39:00,71.1,53.1,29.87,NW,323,6.9,6.9,53,0.00,OVC,FEW,0.00,0.0,WeatherDisplay:10.37,2013-08-01 22:39:00,
2013-08-01 17:44:00,71.3,54.3,29.86,NW,320,3.0,7.0,55,0.00,OVC,FEW,0.00,0.0,WeatherDisplay:10.37,2013-08-01 22:44:00,
2013-08-01 17:49:00,71.3,54.3,29.86,NNW,328,2.0,5.0,55,0.00,OVC,FEW,0.00,0.0,WeatherDisplay:10.37,2013-08-01 22:49:00,
2013-08-01 17:55:00,71.1,55.1,29.86,NNW,333,2.3,2.3,57,0.00,OVC,FEW,0.00,0.0,WeatherDisplay:10.37,2013-08-01 22:55:00,
2013-08-01 18:00:00,71.1,54.6,29.85,NNW,333,3.0,3.0,56,0.00,OVC,FEW,0.00,0.0,WeatherDisplay:10.37,2013-08-01 23:00:00,
2013-08-01 18:05:00,70.9,55.9,29.85,NNW,333,3.5,3.5,59,0.00,OVC,FEW,0.00,0.0,WeatherDisplay:10.37,2013-08-01 23:05:00,
2013-08-01 18:10:00,70.9,53.4,29.85,NNW,333,2.3,2.3,54,0.00,OVC,FEW,0.00,0.0,WeatherDisplay:10.37,2013-08-01 23:10:00,
2013-08-01 18:15:00,70.6,56.5,29.85,NNW,333,4.0,4.0,61,0.00,OVC,FEW,0.00,0.0,WeatherDisplay:10.37,2013-08-01 23:15:00,
2013-08-01 18:20:00,70.9,53.9,29.85,NNW,330,3.5,3.5,55,0.00,OVC,FEW,0.00,0.0,WeatherDisplay:10.37,2013-08-01 23:20:00,
2013-08-01 18:25:00,70.4,57.6,29.85,NNW,330,1.2,1.2,64,0.00,OVC,FEW,0.00,0.0,WeatherDisplay:10.37,2013-08-01 23:25:00,
2013-08-01 18:31:00,70.4,54.9,29.85,NNW,327,3.5,3.5,58,0.00,OVC,FEW,0.00,0.0,WeatherDisplay:10.37,2013-08-01 23:31:00,
2013-08-01 18:36:00,69.8,58.3,29.85,NW,309,5.8,5.8,67,0.00,OVC,FEW,0.00,0.0,WeatherDisplay:10.37,2013-08-01 23:36:00,
2013-08-01 18:41:00,69.1,58.1,29.85,NW,306,5.8,5.8,68,0.00,OVC,FEW,0.00,0.0,WeatherDisplay:10.37,2013-08-01 23:41:00,
2013-08-01 18:47:00,69.6,56.9,29.85,NW,320,4.0,4.0,64,0.00,OVC,FEW,0.00,0.0,WeatherDisplay:10.37,2013-08-01 23:47:00,
2013-08-01 18:52:00,69.8,54.4,29.85,NW,319,2.3,2.3,58,0.00,OVC,FEW,0.00,0.0,WeatherDisplay:10.37,2013-08-01 23:52:00,
2013-08-01 18:57:00,68.8,58.6,29.85,NW,319,3.5,3.5,70,0.00,OVC,FEW,0.00,0.0,WeatherDisplay:10.37,2013-08-01 23:57:00,
2013-08-01 19:02:00,67.9,58.5,29.85,NW,319,2.3,2.3,72,0.00,,FEW,0.00,0.0,WeatherDisplay:10.37,2013-08-02 00:02:00,
2013-08-01 19:08:00,67.6,58.2,29.85,NW,317,4.0,4.0,72,0.00,,FEW,0.00,0.0,WeatherDisplay:10.37,2013-08-02 00:08:00,
2013-08-01 19:13:00,67.3,58.0,29.85,NW,317,3.5,3.5,72,0.00,,FEW,0.00,0.0,WeatherDisplay:10.37,2013-08-02 00:13:00,
2013-08-01 19:18:00,66.9,58.3,29.85,NW,317,1.2,0.0,74,0.00,,FEW,0.00,0.0,WeatherDisplay:10.37,2013-08-02 00:18:00,
2013-08-01 19:24:00,66.4,57.5,29.85,NW,317,1.2,0.0,73,0.00,,FEW,0.00,0.0,WeatherDisplay:10.37,2013-08-02 00:24:00,
2013-08-01 19:29:00,66.3,57.8,29.85,NW,317,1.0,0.0,74,0.00,,FEW,0.00,0.0,WeatherDisplay:10.37,2013-08-02 00:29:00,
2013-08-01 19:34:00,66.0,57.5,29.85,NW,317,0.0,1.0,74,0.00,,FEW,0.00,0.0,WeatherDisplay:10.37,2013-08-02 00:34:00,
2013-08-01 19:39:00,66.0,58.2,29.85,NW,317,0.0,1.0,76,0.00,,FEW,0.00,0.0,WeatherDisplay:10.37,2013-08-02 00:39:00,
2013-08-01 19:45:00,65.6,57.5,29.85,NW,317,2.0,2.0,75,0.00,,FEW,0.00,0.0,WeatherDisplay:10.37,2013-08-02 00:45:00,
2013-08-01 19:51:00,65.6,57.5,29.85,NW,317,0.0,0.1,75,0.00,,FEW,0.00,0.0,WeatherDisplay:10.37,2013-08-02 00:51:00,
2013-08-01 19:56:00,65.5,57.7,29.85,NW,317,1.2,1.2,76,0.00,,FEW,0.00,0.0,WeatherDisplay:10.37,2013-08-02 00:56:00,
2013-08-01 20:02:00,65.3,57.9,29.85,NW,317,1.2,0.0,77,0.00,,FEW,0.00,0.0,WeatherDisplay:10.37,2013-08-02 01:02:00,
2013-08-01 20:07:00,65.2,58.2,29.85,NW,317,0.0,0.0,78,0.00,,FEW,0.00,0.0,WeatherDisplay:10.37,2013-08-02 01:07:00,
2013-08-01 20:12:00,64.8,58.1,29.85,NW,317,0.0,0.0,79,0.00,,FEW,0.00,0.0,WeatherDisplay:10.37,2013-08-02 01:12:00,
2013-08-01 20:17:00,64.8,57.8,29.84,NW,317,0.0,0.0,78,0.00,,FEW,0.00,0.0,WeatherDisplay:10.37,2013-08-02 01:17:00,
2013-08-01 20:23:00,64.8,57.4,29.84,NW,317,2.3,2.3,77,0.00,,FEW,0.00,0.0,WeatherDisplay:10.37,2013-08-02 01:23:00,
2013-08-01 20:28:00,64.8,57.1,29.84,NW,318,0.0,0.0,76,0.00,,FEW,0.00,0.0,WeatherDisplay:10.37,2013-08-02 01:28:00,
2013-08-01 20:34:00,64.8,57.4,29.84,NW,318,0.0,0.0,77,0.00,,FEW,0.00,0.0,WeatherDisplay:10.37,2013-08-02 01:34:00,
2013-08-01 20:39:00,64.8,57.1,29.84,NW,318,0.0,0.0,76,0.00,,FEW,0.00,0.0,WeatherDisplay:10.37,2013-08-02 01:39:00,
2013-08-01 20:44:00,64.7,57.0,29.84,NW,318,0.0,0.0,76,0.00,,FEW,0.00,0.0,WeatherDisplay:10.37,2013-08-02 01:44:00,
2013-08-01 20:49:00,64.5,56.8,29.84,NW,318,0.0,3.0,76,0.00,,FEW,0.00,0.0,WeatherDisplay:10.37,2013-08-02 01:49:00,
2013-08-01 20:54:00,64.2,56.8,29.84,NW,318,0.0,0.1,77,0.00,,FEW,0.00,0.0,WeatherDisplay:10.37,2013-08-02 01:54:00,
2013-08-01 21:00:00,64.0,56.6,29.84,NW,318,1.2,0.0,77,0.00,,FEW,0.00,0.0,WeatherDisplay:10.37,2013-08-02 02:00:00,
2013-08-01 21:05:00,63.7,56.7,29.84,NW,317,1.2,1.2,78,0.00,,FEW,0.00,0.0,WeatherDisplay:10.37,2013-08-02 02:05:00,
2013-08-01 21:10:00,63.5,56.5,29.84,NW,317,0.0,0.0,78,0.00,,FEW,0.00,0.0,WeatherDisplay:10.37,2013-08-02 02:10:00,
2013-08-01 21:15:00,63.2,56.6,29.84,NW,318,1.2,0.0,79,0.00,,FEW,0.00,0.0,WeatherDisplay:10.37,2013-08-02 02:15:00,
2013-08-01 21:21:00,62.9,56.3,29.84,NW,318,3.5,3.5,79,0.00,,FEW,0.00,0.0,WeatherDisplay:10.37,2013-08-02 02:21:00,
2013-08-01 21:26:00,62.6,56.0,29.84,NW,318,2.3,2.3,79,0.00,,FEW,0.00,0.0,WeatherDisplay:10.37,2013-08-02 02:26:00,
2013-08-01 21:32:00,62.3,56.0,29.84,NW,318,1.2,1.2,80,0.00,,FEW,0.00,0.0,WeatherDisplay:10.37,2013-08-02 02:32:00,
2013-08-01 21:37:00,62.0,55.8,29.84,NW,317,0.0,0.0,80,0.00,,FEW,0.00,0.0,WeatherDisplay:10.37,2013-08-02 02:37:00,
2013-08-01 21:42:00,61.6,55.7,29.83,NW,317,1.2,1.2,81,0.00,,FEW,0.00,0.0,WeatherDisplay:10.37,2013-08-02 02:42:00,
2013-08-01 21:47:00,61.3,55.4,29.83,NW,317,3.5,3.5,81,0.00,,FEW,0.00,0.0,WeatherDisplay:10.37,2013-08-02 02:47:00,
2013-08-01 21:52:00,61.0,55.5,29.84,NW,318,3.5,3.5,82,0.00,,FEW,0.00,0.0,WeatherDisplay:10.37,2013-08-02 02:52:00,
2013-08-01 21:57:00,60.7,55.2,29.84,NW,317,4.0,4.0,82,0.00,,FEW,0.00,0.0,WeatherDisplay:10.37,2013-08-02 02:57:00,
2013-08-01 22:03:00,60.4,55.2,29.84,NW,317,3.5,3.5,83,0.00,,FEW,0.00,0.0,WeatherDisplay:10.37,2013-08-02 03:03:00,
2013-08-01 22:08:00,60.1,54.9,29.84,NW,317,4.0,4.0,83,0.00,,FEW,0.00,0.0,WeatherDisplay:10.37,2013-08-02 03:08:00,
2013-08-01 22:13:00,59.9,55.1,29.84,NW,317,2.3,2.3,84,0.00,,FEW,0.00,0.0,WeatherDisplay:10.37,2013-08-02 03:13:00,
2013-08-01 22:18:00,59.6,54.8,29.84,NW,318,3.5,3.5,84,0.00,,FEW,0.00,0.0,WeatherDisplay:10.37,2013-08-02 03:18:00,
2013-08-01 22:24:00,59.5,54.7,29.83,NW,317,3.5,3.5,84,0.00,,FEW,0.00,0.0,WeatherDisplay:10.37,2013-08-02 03:24:00,
2013-08-01 22:29:00,59.2,54.7,29.84,NW,317,3.5,3.5,85,0.00,,FEW,0.00,0.0,WeatherDisplay:10.37,2013-08-02 03:29:00,
2013-08-01 22:34:00,59.0,54.5,29.83,NW,318,3.0,3.0,85,0.00,,FEW,0.00,0.0,WeatherDisplay:10.37,2013-08-02 03:34:00,
2013-08-01 22:39:00,58.9,54.7,29.83,NW,317,3.5,3.5,86,0.00,,FEW,0.00,0.0,WeatherDisplay:10.37,2013-08-02 03:39:00,
2013-08-01 22:44:00,58.7,54.5,29.83,NW,310,5.0,6.0,86,0.00,,FEW,0.00,0.0,WeatherDisplay:10.37,2013-08-02 03:44:00,
2013-08-01 22:49:00,58.6,54.7,29.83,WNW,296,4.6,4.6,87,0.00,,FEW,0.00,0.0,WeatherDisplay:10.37,2013-08-02 03:49:00,
2013-08-01 22:55:00,58.4,54.5,29.83,WNW,289,4.6,4.6,87,0.00,,FEW,0.00,0.0,WeatherDisplay:10.37,2013-08-02 03:55:00,
2013-08-01 23:01:00,58.3,54.8,29.83,WNW,284,5.0,5.0,88,0.00,,FEW,0.00,0.0,WeatherDisplay:10.37,2013-08-02 04:01:00,
2013-08-01 23:02:00,58.3,54.8,29.83,WNW,284,4.6,4.6,88,0.00,,FEW,0.00,0.0,WeatherDisplay:10.37,2013-08-02 04:02:00,
2013-08-01 23:03:00,58.1,54.6,29.83,WNW,284,3.5,3.5,88,0.00,,FEW,0.00,0.0,WeatherDisplay:10.37,2013-08-02 04:03:00,
2013-08-01 23:08:00,58.1,54.6,29.83,West,281,4.0,4.0,88,0.00,,FEW,0.00,0.0,WeatherDisplay:10.37,2013-08-02 04:08:00,
2013-08-01 23:13:00,58.0,54.5,29.83,West,281,5.0,5.0,88,0.00,,FEW,0.00,0.0,WeatherDisplay:10.37,2013-08-02 04:13:00,
2013-08-01 23:19:00,57.8,54.6,29.83,West,281,5.8,5.8,89,0.00,,FEW,0.00,0.0,WeatherDisplay:10.37,2013-08-02 04:19:00,
2013-08-01 23:20:00,57.8,54.6,29.83,West,281,5.0,5.0,89,0.00,,FEW,0.00,0.0,WeatherDisplay:10.37,2013-08-02 04:20:00,
2013-08-01 23:25:00,57.6,54.4,29.83,West,281,4.6,4.6,89,0.00,,FEW,0.00,0.0,WeatherDisplay:10.37,2013-08-02 04:25:00,
2013-08-01 23:30:00,57.5,54.3,29.82,WSW,257,6.9,6.9,89,0.00,,FEW,0.00,0.0,WeatherDisplay:10.37,2013-08-02 04:30:00,
2013-08-01 23:35:00,57.5,54.6,29.82,WSW,256,3.5,3.5,90,0.00,,FEW,0.00,0.0,WeatherDisplay:10.37,2013-08-02 04:35:00,
2013-08-01 23:40:00,57.5,54.6,29.82,WSW,256,5.0,5.0,90,0.00,,FEW,0.00,0.0,WeatherDisplay:10.37,2013-08-02 04:40:00,
2013-08-01 23:45:00,57.3,54.4,29.82,WSW,256,4.6,4.6,90,0.00,,FEW,0.00,0.0,WeatherDisplay:10.37,2013-08-02 04:45:00,
2013-08-01 23:50:00,57.2,54.3,29.82,WSW,256,5.8,5.8,90,0.00,,FEW,0.00,0.0,WeatherDisplay:10.37,2013-08-02 04:50:00,
2013-08-01 23:56:00,57.2,54.3,29.82,WSW,256,5.0,5.0,90,0.00,,FEW,0.00,0.0,WeatherDisplay:10.37,2013-08-02 04:56:00,